User: anonymous   Login
Location: Dumpton Point
(51.3500°N, 1.4433°E)
Time: 17:23:35
(UTC+00:00)
Language:

Transit 2A Rocket - Orbit

View from above orbital plane
View from above orbital plane
View from above satellite
View from above satellite

Ground track
Ground track

The orbit data is extracted from the following two-line orbital elements,

1    47U 60007C   22266.86056901  .00000262  00000-0  83955-4 0  9991
2    47  66.6646  99.5880 0220379  56.0962 306.0888 14.42422547254589
Epoch (UTC): 23 September 2022 20:39:13
Eccentricity: 0.0220379
inclination: 66.6646°
perigee height: 593 km
apogee height: 907 km
right ascension of ascending node: 99.5880°
argument of perigee: 56.0962°
revolutions per day: 14.42422547
mean anomaly at epoch: 306.0888°
orbit number at epoch: 25458

The dashed part of the orbit path shows where the satellite is in the earth's shadow,  

DLR